CW6294 Weather Reports


time (UTC)temp
C
wind
direction
speed
KPH
gust
KPH
rain 1hr
cm
rain 24hr
cm
rain mn
cm
humidity
%
barometer
mb
20260902005731 31 283 1.6 11.3 0.00 0.00 0.00 80 1013.0
20260902004923 31 298 1.6 9.7 0.00 0.00 0.00 79 1012.7
20260902003417 31 234 1.6 9.7 0.00 0.00 0.00 79 1012.3
20260902001223 32 192 3.2 9.7 0.00 0.00 0.00 77 1012.1
20260901235724 32 261 3.2 11.3 0.00 0.00 0.00 76 1011.9
20260901234222 32 217 1.6 11.3 0.00 0.00 0.00 74 1011.9
20260901232718 33 220 3.2 8.0 0.00 0.00 0.00 73 1012.1
20260901231210 33 196 3.2 12.9 0.00 0.00 0.00 72 1012.2
20260901225707 33 202 4.8 14.5 0.00 0.00 0.00 71 1012.4
20260901224206 33 171 4.8 14.5 0.00 0.00 0.00 71 1012.2
20260901223400 33 195 3.2 12.9 0.00 0.00 0.00 70 1012.4
20260901221915 33 201 3.2 16.1 0.00 0.00 0.00 69 1012.4
20260901215700 34 204 6.4 16.1 0.00 0.00 0.00 67 1012.4
20260901214157 35 232 3.2 12.9 0.00 0.00 0.00 66 1012.6
20260901212658 35 296 6.4 19.3 0.00 0.00 0.00 65 1012.6
20260901211153 35 285 4.8 17.7 0.00 0.00 0.00 65 1012.6
20260901205649 35 257 6.4 16.1 0.00 0.00 0.00 65 1012.7
20260901204147 35 230 6.4 16.1 0.00 0.00 0.00 65 1012.8
20260901202644 35 295 6.4 16.1 0.00 0.00 0.00 65 1012.9
20260901201142 35 253 8.0 19.3 0.00 0.00 0.00 65 1013.0
20260901195640 35 300 6.4 14.5 0.00 0.00 0.00 65 1013.1
20260901194140 35 296 4.8 19.3 0.00 0.00 0.00 66 1013.1
20260901192640 34 235 4.8 19.3 0.00 0.00 0.00 65 1013.4
20260901191140 35 271 3.2 17.7 0.00 0.00 0.00 64 1013.7
20260901185639 34 309 8.0 25.7 0.00 0.00 0.00 65 1013.8
20260901184141 35 292 4.8 17.7 0.00 0.00 0.00 68 1013.7
20260901182638 33 292 4.8 16.1 0.00 0.00 0.00 70 1013.6
20260901181134 33 242 6.4 16.1 0.00 0.00 0.00 69 1013.6
20260901175635 35 300 1.6 16.1 0.00 0.00 0.00 66 1013.7
20260901174132 34 267 3.2 14.5 0.00 0.00 0.00 68 1013.6
20260901172631 33 228 3.2 11.3 0.00 0.00 0.00 70 1013.8
20260901171117 33 213 4.8 16.1 0.00 0.00 0.00 69 1013.9
20260901165609 34 242 4.8 17.7 0.00 0.00 0.00 70 1014.1
20260901164108 33 278 1.6 11.3 0.00 0.00 0.00 73 1014.3
20260901163257 33 296 3.2 14.5 0.00 0.00 0.00 73 1014.4
20260901161057 33 286 4.8 17.7 0.00 0.00 0.00 74 1014.6
20260901155558 33 252 4.8 12.9 0.00 0.00 0.00 74 1014.8
20260901154750 32 209 4.8 14.5 0.00 0.00 0.00 75 1015.0
20260901153257 32 217 3.2 9.7 0.00 0.00 0.00 76 1015.2
20260901151053 32 185 1.6 9.7 0.00 0.00 0.00 78 1015.3
20260901145551 31 207 3.2 11.3 0.00 0.00 0.00 76 1015.2
20260901144047 30 267 1.6 9.7 0.00 0.00 0.00 79 1015.4
20260901142540 31 217 0.0 0.0 0.00 0.00 0.00 79 1015.3
20260901141043 31 247 0.0 0.0 0.00 0.00 0.00 79 1015.3
20260901135539 30 171 0.0 0.0 0.00 0.00 0.00 81 1015.3
20260901134036 30 183 0.0 0.0 0.00 0.00 0.00 83 1015.3
20260901132527 28 211 0.0 0.0 0.00 0.00 0.00 85 1015.5
20260901131015 28 211 0.0 0.0 0.00 0.00 0.00 89 1015.5
20260901125504 27 214 0.0 0.0 0.00 0.00 0.00 91 1015.7
20260901124006 27 215 0.0 0.0 0.00 0.00 0.00 92 1015.7
20260901122453 26 216 0.0 0.0 0.00 0.00 0.00 93 1015.8
20260901120951 26 186 0.0 0.0 0.00 0.00 0.00 95 1015.7
20260901115448 26 213 0.0 0.0 0.00 0.00 0.00 95 1015.5
20260901113940 26 214 0.0 0.0 0.00 0.00 0.00 96 1015.3
20260901112439 25 266 0.0 0.0 0.00 0.00 0.00 97 1015.2
20260901110932 25 198 0.0 0.0 0.00 0.00 0.00 98 1015.1
20260901105428 25 200 0.0 0.0 0.00 0.00 0.00 99 1015.2
20260901103923 25 200 0.0 0.0 0.00 0.00 0.00 99 1015.0
20260901102423 25 200 0.0 0.0 0.00 0.00 0.00 99 1014.9
20260901100904 25 200 0.0 0.0 0.00 0.00 0.00 99 1014.8
20260901095403 25 200 0.0 0.0 0.00 0.00 0.00 99 1014.6
20260901093836 25 200 0.0 0.0 0.00 0.00 0.00 99 1014.6
20260901092330 25 200 0.0 0.0 0.00 0.00 0.00 99 1015.0
20260901090829 25 203 0.0 0.0 0.00 0.00 0.00 99 1015.0
20260901090027 25 201 0.0 0.0 0.00 0.00 0.00 98 1014.9
20260901083825 25 196 0.0 0.0 0.00 0.00 0.00 98 1015.0
20260901082321 25 198 0.0 0.0 0.00 0.00 0.00 99 1015.0
20260901081517 25 226 0.0 0.0 0.00 0.00 0.00 99 1015.1
20260901075316 25 209 0.0 0.0 0.00 0.00 0.00 99 1015.0
20260901073816 25 205 0.0 0.0 0.00 0.00 0.00 100 1015.1
20260901073008 25 185 0.0 0.0 0.00 0.00 0.00 100 1015.3
20260901070803 25 185 0.0 0.0 0.00 0.00 0.00 100 1015.4
20260901065301 25 208 0.0 0.0 0.00 0.00 0.00 100 1015.5
20260901064447 25 209 0.0 0.0 0.00 0.00 0.00 100 1015.7
20260901062942 25 221 0.0 0.0 0.00 0.00 0.00 100 1015.6
20260901060743 25 200 0.0 0.0 0.00 0.00 0.00 100 1015.5
20260901055236 25 198 0.0 0.0 0.00 0.00 0.00 99 1015.7
20260901053728 25 198 0.0 0.0 0.00 0.00 0.00 99 1015.9
20260901052212 25 194 0.0 0.0 0.00 0.00 0.00 99 1015.9
20260901050714 25 194 0.0 0.0 0.00 0.00 0.00 99 1016.1
20260901045143 25 194 0.0 0.0 0.00 0.00 0.00 99 1016.3
20260901043641 25 202 0.0 0.0 0.00 0.00 0.00 99 1016.4
20260901042851 25 114 0.0 0.0 0.00 0.00 0.00 99 1016.4
20260901040633 25 114 0.0 0.0 0.00 0.00 0.00 99 1016.5
20260901035131 25 114 0.0 0.0 0.00 0.00 0.00 99 1016.5
20260901033623 25 114 0.0 0.0 0.00 0.00 0.00 99 1016.5
20260901032113 25 114 0.0 0.0 0.00 0.00 0.00 98 1016.6
20260901030606 26 114 0.0 0.0 0.00 0.00 0.00 98 1016.5
20260901025056 26 114 0.0 0.0 0.00 0.00 0.00 98 1016.7
20260901023550 26 114 0.0 0.0 0.00 0.00 0.00 97 1016.6
20260901022042 26 114 0.0 0.0 0.00 0.00 0.00 97 1016.4
20260901020539 26 114 0.0 0.0 0.00 0.00 0.00 97 1016.5
20260901015040 26 114 0.0 0.0 0.00 0.00 0.00 97 1016.6
20260901013538 26 114 0.0 0.0 0.00 0.00 0.00 96 1016.6
20260901012739 26 136 0.0 0.0 0.00 0.00 0.00 96 1016.5
20260901011220 27 149 0.0 0.0 0.00 0.00 0.00 95 1016.4